Wetbulb
48.29 50.16 48.49 47.95 48.94 48.59 47.30 45.58 45.82 43.16 43.90 44.73 44.69 45.29 45.77 45.86 46.11 46.25 47.08 48.32 49.32 50.22 51.13 51.00 50.97 51.07 51.27
45.85 47.19 47.61 47.15 47.90 46.10 46.32 44.54 43.13 42.02 42.05 42.87 43.42 44.22 44.14 44.11 44.10 44.11 45.07 46.54 47.19 47.04 47.47 47.64 48.00 48.27 48.55
43.31 45.79 46.21 46.11 45.12 44.69 44.01 43.28 43.44 38.70 40.01 42.01 43.98 43.60 43.26 42.86 42.35 42.33 43.41 44.40 43.98 43.75 43.46 43.88 44.27 44.66 45.13
41.93 41.58 41.88 42.61 41.79 39.53 39.33 41.99 40.23 40.55 38.24 39.23 41.73 42.53 41.68 40.41 39.73 39.63 41.67 43.00 42.61 42.63 42.21 42.01 42.19 42.81 42.91
38.44 38.27 37.80 37.46 37.54 38.78 37.04 37.38 38.52 38.04 36.44 36.23 36.93 38.09 38.19 38.33 37.66 38.07 40.58 41.64 41.44 41.35 40.38 40.08 39.87 40.08 40.39
37.24 35.90 36.52 37.04 37.32 36.06 35.41 34.46 33.35 36.73 34.47 34.98 35.14 35.36 36.73 35.76 39.06 40.23 41.20 41.32 40.06 38.59 38.46 38.60 38.81 39.11 39.43
38.68 38.13 36.95 37.43 36.76 34.94 34.95 34.35 33.93 34.06 33.07 31.95 34.15 33.19 36.25 36.20 37.83 40.83 41.63 40.70 38.88 37.12 37.17 37.71 38.07 38.31 38.45
41.36 40.65 39.85 39.08 36.99 36.13 34.67 34.21 35.01 34.34 33.11 29.95 33.16 31.55 34.30 34.14 38.79 40.93 41.52 40.13 39.41 36.75 36.21 36.67 36.93 37.29 37.55
44.34 44.10 43.95 41.51 38.45 35.14 32.78 31.44 31.28 32.67 32.86 31.18 31.98 30.81 30.98 31.43 34.33 39.87 40.85 39.83 39.27 37.73 36.83 36.60 36.33 36.78 35.46
38.26 39.42 41.35 40.05 40.27 36.50 34.15 32.16 31.24 30.64 33.10 30.61 30.34 29.74 28.95 30.58 31.28 34.37 36.37 38.70 38.34 38.06 37.60 36.68 35.80 32.37 31.51
38.23 37.70 37.06 37.18 36.61 36.45 35.65 33.37 31.95 31.22 33.40 32.47 30.30 29.88 27.26 27.72 29.70 30.74 32.99 33.35 33.22 33.81 36.38 35.20 35.10 34.09 29.69
37.20 35.52 34.69 34.30 34.43 35.32 35.19 34.11 34.12 32.93 32.82 31.95 30.47 31.66 28.03 25.86 26.21 28.82 28.75 29.33 30.30 29.72 31.24 33.23 34.66 34.96 35.33
35.74 34.86 35.14 34.42 33.42 32.55 31.60 31.70 30.73 30.91 31.61 31.98 31.36 28.94 27.37 26.76 26.09 27.09 26.12 29.03 29.99 29.70 29.95 29.61 28.72 28.63 28.26
35.63 35.90 34.83 34.25 33.65 33.29 31.98 30.18 28.03 29.25 30.99 31.57 30.23 29.70 26.83 28.48 26.81 26.51 28.03 24.97 28.65 28.92 28.75 29.11 29.95 29.60 29.28
34.62 34.33 34.01 33.24 32.78 33.69 32.41 31.45 28.30 27.71 29.26 29.14 30.40 29.53 28.65 25.75 25.57 28.31 27.61 27.97 29.68 28.57 27.96 26.60 28.52 29.16 29.27
33.86 34.05 33.39 32.48 32.16 32.07 31.93 31.24 29.59 29.86 30.05 29.35 27.67 26.41 26.67 27.72 30.47 27.36 26.26 26.25 28.61 27.17 26.67 22.77 25.66 29.05 29.44
33.13 33.27 33.09 32.51 32.66 31.72 31.12 30.80 29.86 30.56 30.75 29.90 28.01 25.98 24.64 23.45 27.47 32.22 26.80 28.32 27.41 25.58 25.60 25.37 24.95 27.36 28.07
MSLP
1013.04 1012.86 1012.98 1013.10 1012.72 1012.63 1012.69 1012.71 1012.54 1012.68 1012.66 1012.51 1012.38 1012.16 1011.88 1011.66 1011.39 1011.14 1010.87 1010.65 1010.39 1010.34 1010.32 1010.23 1010.16 1010.09 1010.09
1012.90 1012.79 1012.67 1012.98 1012.62 1012.56 1012.48 1012.36 1012.52 1012.61 1012.75 1012.61 1012.44 1012.34 1012.19 1012.05 1011.89 1011.69 1011.45 1011.23 1011.24 1011.27 1011.22 1011.23 1011.17 1011.09 1011.09
1012.75 1012.66 1012.49 1012.53 1012.39 1012.40 1012.23 1012.30 1012.26 1012.58 1012.66 1012.58 1012.39 1012.42 1012.43 1012.44 1012.40 1012.25 1012.06 1011.90 1011.83 1011.87 1011.92 1011.92 1011.98 1011.94 1011.82
1012.70 1012.65 1012.57 1012.42 1012.51 1012.66 1012.34 1011.94 1012.07 1012.05 1012.28 1012.31 1012.34 1012.42 1012.58 1012.63 1012.57 1012.52 1012.34 1012.17 1012.18 1012.21 1012.17 1012.29 1012.31 1012.29 1012.23
1012.56 1012.58 1012.54 1012.50 1012.47 1012.32 1012.39 1012.19 1011.91 1011.98 1012.20 1012.18 1012.24 1012.11 1012.14 1012.22 1012.34 1012.46 1012.44 1012.38 1012.43 1012.46 1012.53 1012.53 1012.49 1012.51 1012.35
1012.20 1012.10 1011.97 1011.86 1011.85 1012.10 1012.36 1012.43 1012.15 1011.95 1012.17 1011.87 1011.84 1011.90 1011.81 1011.86 1011.79 1011.98 1011.99 1012.26 1012.56 1012.74 1012.81 1012.63 1012.56 1012.51 1012.47
1011.39 1011.29 1011.30 1011.24 1011.48 1011.83 1012.07 1012.29 1012.26 1012.16 1012.27 1011.89 1011.73 1011.83 1011.44 1011.51 1011.82 1011.94 1011.98 1012.27 1012.52 1012.66 1012.67 1012.71 1012.62 1012.55 1012.49
1010.87 1010.69 1010.76 1010.84 1011.17 1011.52 1011.84 1012.00 1011.82 1011.84 1012.16 1012.16 1011.46 1011.60 1011.33 1011.46 1011.62 1011.83 1011.75 1012.13 1012.30 1012.59 1012.69 1012.67 1012.69 1012.62 1012.61
1010.08 1010.17 1010.34 1010.56 1010.99 1011.36 1011.78 1012.11 1011.87 1011.54 1011.86 1012.04 1011.63 1011.74 1011.66 1011.54 1011.45 1011.54 1011.58 1011.95 1012.15 1012.37 1012.54 1012.65 1012.56 1012.43 1012.42
1009.84 1010.02 1010.17 1010.31 1010.55 1010.94 1011.23 1011.65 1011.86 1011.60 1011.35 1011.95 1011.89 1012.01 1012.02 1011.80 1011.66 1011.56 1011.65 1011.80 1011.89 1012.01 1012.13 1012.21 1012.18 1012.31 1012.18
1009.50 1009.46 1009.46 1009.71 1010.02 1010.36 1010.69 1011.00 1011.29 1011.34 1011.25 1011.58 1011.99 1011.99 1012.06 1012.16 1011.88 1011.77 1011.74 1011.74 1011.82 1011.88 1011.82 1011.88 1011.93 1011.93 1011.96
1009.55 1009.46 1009.46 1009.56 1009.62 1009.88 1010.17 1010.36 1010.56 1010.96 1011.19 1011.47 1011.85 1011.96 1012.05 1012.10 1011.95 1011.81 1011.85 1011.83 1011.80 1011.86 1011.84 1011.70 1011.64 1011.50 1011.41
1009.13 1009.18 1009.27 1009.19 1009.41 1009.80 1010.08 1010.38 1010.79 1010.94 1011.06 1011.30 1011.57 1011.77 1011.98 1012.06 1011.89 1011.66 1011.80 1011.63 1011.77 1011.76 1011.76 1011.69 1011.54 1011.43 1011.19
1008.61 1008.58 1008.51 1008.94 1009.32 1009.67 1010.07 1010.48 1010.88 1010.92 1011.04 1011.18 1011.40 1011.58 1011.65 1011.73 1011.79 1011.70 1011.68 1011.79 1011.50 1011.67 1011.65 1011.47 1011.14 1010.92 1010.87
1008.36 1008.38 1008.38 1008.54 1008.85 1009.13 1009.52 1009.90 1010.10 1010.06 1010.45 1010.92 1011.13 1011.25 1011.42 1011.45 1011.42 1011.23 1011.18 1011.19 1011.12 1011.34 1011.47 1011.25 1010.79 1010.56 1010.43
1007.92 1007.98 1008.07 1008.22 1008.43 1008.67 1008.93 1009.12 1009.27 1009.43 1009.67 1010.09 1010.67 1011.14 1011.24 1010.73 1010.60 1010.53 1010.62 1010.89 1010.87 1010.99 1011.22 1011.12 1010.39 1009.83 1009.76
1007.43 1007.52 1007.66 1007.85 1008.05 1008.08 1008.25 1008.45 1008.56 1008.69 1008.87 1009.27 1009.78 1010.16 1010.37 1010.10 1009.83 1009.94 1010.33 1010.52 1010.71 1010.80 1010.88 1010.79 1010.35 1009.42 1009.31
Wind_Speed
5 4 6 7 5 4 2 4 2 2 6 6 6 6 7 9 10 11 11 11 12 12 13 13 13 13 13
6 4 4 6 7 5 5 2 3 2 4 6 5 2 3 6 8 9 9 9 12 12 12 11 11 11 10
7 4 3 4 4 4 4 4 4 2 5 4 2 1 2 3 5 7 5 7 8 9 9 9 9 9 8
6 5 3 2 1 3 4 3 3 3 3 3 1 2 1 1 1 4 4 3 4 6 7 7 7 7 7
4 3 3 3 4 1 1 4 3 4 3 3 3 4 5 6 4 4 3 3 3 5 4 4 5 5 4
4 5 6 4 3 2 2 2 3 1 2 4 4 4 4 3 4 5 8 6 5 3 3 3 3 4 5
8 7 6 3 2 2 4 4 4 2 0 4 3 4 3 3 5 6 8 6 4 1 3 4 5 5 6
11 9 6 3 4 2 1 3 3 2 2 3 2 3 2 3 9 9 11 9 7 4 2 4 5 6 8
12 10 9 6 3 1 3 2 2 3 3 1 1 1 0 2 4 11 10 11 10 8 6 7 7 8 7
5 8 11 8 11 7 4 4 3 1 3 3 1 1 3 1 3 2 4 9 10 10 10 9 9 3 4
5 4 4 6 5 6 6 3 3 3 4 3 2 2 2 2 2 2 2 2 3 5 9 9 9 7 4
5 4 4 3 3 5 6 5 3 4 3 3 2 2 2 1 2 1 1 3 2 1 1 5 10 10 12
5 4 3 3 3 3 3 4 2 1 1 3 2 3 2 2 1 1 1 2 2 1 2 2 2 3 4
4 4 2 3 3 4 4 4 3 3 4 4 4 3 2 3 2 2 2 2 1 2 2 2 5 5 5
3 3 4 5 5 5 5 5 6 3 5 4 4 3 3 2 3 5 4 3 2 2 1 3 5 5 6
3 4 4 5 5 4 5 6 7 6 5 5 5 3 3 6 15 6 2 2 2 2 2 3 5 5 5
3 4 4 4 6 5 6 6 6 6 6 6 6 4 5 4 1 16 4 2 2 2 3 3 5 9 6
Wind_Direction
278 314 297 297 289 242 237 284 215 71 345 357 360 12 25 33 35 37 41 46 56 61 61 64 64 62 58
269 278 243 279 270 283 273 248 288 102 327 323 327 21 32 40 34 32 40 57 60 58 60 60 63 63 58
276 276 266 232 268 287 253 241 230 122 273 286 300 6 68 53 32 24 28 65 67 67 65 62 56 51 53
261 279 287 295 320 279 291 221 245 198 216 249 337 111 117 317 338 352 350 80 68 64 64 53 44 39 37
249 248 246 256 229 243 266 283 255 196 241 218 221 207 204 217 230 233 246 138 107 78 47 27 22 12 15
232 237 244 232 220 225 255 290 298 87 227 255 165 241 226 197 206 220 195 174 142 89 9 15 7 351 342
249 237 254 244 211 230 228 223 252 170 226 271 160 236 226 174 223 233 196 194 173 97 360 342 336 327 321
236 251 260 249 174 218 311 312 307 179 162 257 134 239 185 182 205 222 206 212 203 213 296 312 305 299 297
235 243 246 194 192 191 215 209 266 225 165 248 246 292 198 252 198 212 227 211 217 221 251 285 289 291 286
215 248 247 232 226 211 203 206 205 303 156 175 161 123 315 335 320 192 201 225 237 239 256 273 282 282 293
268 241 215 205 211 205 209 187 189 226 183 135 210 152 166 286 230 249 266 263 211 254 246 263 270 261 268
270 252 238 216 198 192 193 195 185 192 166 141 187 205 163 221 236 116 250 256 243 235 269 263 281 273 274
231 224 214 213 161 137 98 100 78 151 192 159 159 157 160 224 252 187 351 238 197 216 257 243 253 277 287
232 226 186 140 174 170 183 180 192 203 190 189 183 172 191 215 211 260 212 248 136 212 242 260 272 256 259
257 239 211 187 197 191 194 191 209 182 186 181 192 201 229 238 241 226 229 234 189 217 238 266 267 267 268
234 246 235 216 209 193 194 208 216 216 197 168 162 177 212 239 219 232 208 214 208 200 221 258 283 277 268
230 239 225 218 218 205 205 213 219 213 200 168 175 186 204 224 125 210 223 195 176 218 210 235 281 282 281